EW7144 Weather Reports


time (UTC)temp
F
wind
direction
speed
knots
gust
knots
rain 1hr
in
rain 24hr
in
rain mn
in
humidity
%
barometer
mb
20260906082407 59 342 11.3 22.6 0.04 0.52 0.52 91 1001.4
20260906081908 59 348 11.3 20.9 0.05 0.52 0.52 91 1001.4
20260906081407 59 341 9.6 20.9 0.05 0.51 0.51 91 1001.5
20260906080907 59 352 10.4 24.3 0.05 0.51 0.51 91 1001.5
20260906080407 59 342 13.0 21.7 0.05 0.51 0.51 91 1001.6
20260906075907 59 343 11.3 19.1 0.06 0.51 0.51 91 1001.5
20260906075408 59 344 11.3 22.6 0.06 0.51 0.51 91 1001.5
20260906074907 59 348 11.3 22.6 0.06 0.51 0.51 91 1001.6
20260906074408 59 356 13.9 24.3 0.06 0.50 0.50 91 1001.6
20260906073907 59 345 12.2 20.9 0.08 0.50 0.50 91 1001.7
20260906072907 59 346 13.0 22.6 0.08 0.50 0.50 91 1001.7
20260906072407 59 348 13.0 21.7 0.07 0.48 0.48 91 1001.8
20260906071907 59 348 12.2 26.1 0.06 0.47 0.47 91 1001.8
20260906071407 59 346 11.3 24.3 0.06 0.46 0.46 91 1001.8
20260906070407 59 357 15.6 26.1 0.06 0.46 0.46 91 1002.0
20260906065907 59 341 12.2 24.3 0.05 0.46 0.46 91 1001.9
20260906065407 59 350 13.9 25.2 0.04 0.45 0.45 91 1001.8
20260906064906 59 337 14.8 24.3 0.04 0.45 0.45 91 1001.9
20260906064406 59 347 14.8 25.2 0.03 0.44 0.44 91 1001.8
20260906063907 59 349 12.2 24.3 0.02 0.43 0.43 91 1002.0
20260906063407 59 346 16.5 33.0 0.01 0.42 0.42 91 1001.9
20260906062407 59 353 15.6 26.9 0.00 0.41 0.41 90 1001.9
20260906061408 59 344 14.8 30.4 0.00 0.41 0.41 91 1001.8
20260906060906 59 347 16.5 22.6 0.00 0.41 0.41 91 1002.0
20260906060407 59 349 13.9 25.2 0.00 0.41 0.41 91 1002.1
20260906055906 59 351 12.2 22.6 0.00 0.41 0.41 90 1002.0
20260906055407 59 328 12.2 22.6 0.00 0.41 0.41 91 1002.1
20260906054908 59 344 12.2 26.9 0.00 0.41 0.41 90 1002.1
20260906052906 59 344 13.9 26.1 0.00 0.41 0.41 91 1002.4
20260906052407 59 348 12.2 21.7 0.00 0.41 0.41 91 1002.5
20260906051907 59 346 14.8 38.2 0.00 0.41 0.41 91 1002.5
20260906051406 59 358 14.8 30.4 0.00 0.41 0.41 90 1002.4
20260906050906 59 338 15.6 30.4 0.00 0.41 0.41 90 1002.5
20260906050406 59 341 14.8 28.7 0.00 0.41 0.41 90 1002.5
20260906045906 59 357 13.9 25.2 0.00 0.41 0.41 90 1002.4
20260906045407 59 3 14.8 26.9 0.00 0.41 0.41 90 1002.4
20260906044407 59 341 14.8 30.4 0.00 0.41 0.41 90 1002.3
20260906043907 59 349 16.5 26.1 0.00 0.41 0.41 90 1002.4
20260906043406 59 355 18.2 31.3 0.00 0.41 0.41 90 1002.3
20260906042906 59 354 16.5 33.0 0.00 0.41 0.41 90 1002.4
20260906041907 59 350 15.6 30.4 0.00 0.41 0.41 90 1002.5
20260906041406 59 346 14.8 26.1 0.00 0.41 0.41 90 1002.6
20260906040907 59 339 17.4 30.4 0.00 0.41 0.41 91 1002.6
20260906040406 59 353 17.4 31.3 0.00 0.41 0.41 91 1002.6
20260906035906 59 336 13.9 26.1 0.00 0.41 0.41 91 1002.7
20260906035406 59 353 15.6 32.2 0.00 0.41 0.41 91 1002.7
20260906034907 59 346 17.4 28.7 0.00 0.41 0.41 91 1002.9
20260906034406 58 349 17.4 27.8 0.01 0.41 0.41 91 1003.0
20260906033906 58 336 14.8 30.4 0.02 0.41 0.41 91 1003.1
20260906033406 58 346 14.8 30.4 0.02 0.41 0.41 91 1003.0
20260906032907 58 348 17.4 30.4 0.02 0.41 0.41 91 1003.3
20260906032407 58 351 17.4 31.3 0.02 0.41 0.41 91 1003.2
20260906031906 58 341 18.2 30.4 0.03 0.41 0.41 91 1003.1
20260906031406 58 354 17.4 27.8 0.04 0.41 0.41 91 1003.2
20260906030907 58 352 17.4 32.2 0.06 0.41 0.41 91 1003.4
20260906025907 58 343 13.9 25.2 0.07 0.41 0.41 90 1003.4
20260906024906 58 335 15.6 27.8 0.07 0.41 0.41 90 1003.4
20260906024407 57 348 14.8 30.4 0.08 0.40 0.40 90 1003.5
20260906023906 57 358 13.9 34.8 0.09 0.39 0.39 90 1003.7
20260906023407 57 350 13.0 24.3 0.09 0.39 0.39 90 1003.6
20260906022906 57 344 15.6 26.1 0.10 0.39 0.39 90 1003.5
20260906022406 57 354 16.5 26.1 0.10 0.39 0.39 90 1003.6
20260906021907 57 344 14.8 24.3 0.09 0.38 0.38 90 1003.5
20260906021406 57 336 17.4 31.3 0.09 0.37 0.37 90 1003.6
20260906020906 57 348 14.8 25.2 0.06 0.35 0.35 89 1003.8
20260906020407 57 347 13.9 28.7 0.06 0.34 0.34 89 1003.9
20260906015407 57 351 14.8 30.4 0.06 0.34 0.34 89 1004.1
20260906013407 56 358 12.2 33.0 0.03 0.30 0.30 88 1004.8
20260906012407 56 348 11.3 26.9 0.05 0.28 0.28 87 1005.0
20260906011906 56 341 14.8 25.2 0.05 0.28 0.28 88 1005.5
20260906011407 56 355 15.6 30.4 0.06 0.28 0.28 88 1005.6
20260906010908 56 350 14.8 26.9 0.06 0.28 0.28 89 1005.7
20260906005907 56 357 11.3 18.2 0.08 0.28 0.28 89 1005.9
20260906004407 56 351 11.3 19.1 0.09 0.28 0.28 90 1006.4
20260906003907 56 348 11.3 22.6 0.09 0.27 0.27 90 1006.3
20260906003407 56 349 11.3 18.2 0.09 0.27 0.27 90 1006.5
20260906002906 56 344 15.6 24.3 0.09 0.25 0.25 90 1006.6
20260906002408 56 356 10.4 18.2 0.08 0.24 0.24 90 1006.8
20260906001907 56 347 7.0 13.9 0.09 0.24 0.24 90 1007.0
20260906001408 56 341 9.6 17.4 0.09 0.23 0.23 90 1007.4
20260906000907 56 355 7.8 13.9 0.09 0.22 0.22 90 1007.7
20260906000407 56 350 8.7 13.0 0.09 0.20 0.20 90 1007.6
20260905235908 56 352 8.7 19.1 0.09 0.20 0.20 90 1007.3
20260905235407 56 0 8.7 17.4 0.08 0.20 0.20 90 1007.3
20260905234907 56 342 7.8 15.6 0.07 0.19 0.19 90 1007.6
20260905234406 56 351 7.8 13.0 0.07 0.19 0.19 90 1008.0
20260905233906 56 348 7.8 17.4 0.06 0.18 0.18 90 1008.4
20260905233407 56 350 9.6 20.9 0.06 0.17 0.17 90 1008.6
20260905232907 56 343 10.4 24.3 0.05 0.17 0.17 90 1008.8
20260905232407 56 351 9.6 22.6 0.04 0.16 0.16 90 1008.7
20260905231906 57 333 8.7 18.2 0.03 0.15 0.15 90 1008.8
20260905230907 57 346 9.6 17.4 0.01 0.13 0.13 89 1009.0
20260905225907 57 348 6.1 15.6 0.00 0.12 0.12 89 1008.9
20260905225407 57 351 7.8 15.6 0.00 0.12 0.12 90 1009.0
20260905224406 57 353 7.8 17.4 0.00 0.12 0.12 90 1009.1
20260905223907 56 341 7.8 17.4 0.00 0.12 0.12 90 1009.1
20260905223408 56 343 8.7 19.1 0.01 0.12 0.12 90 1009.1
20260905222906 56 341 8.7 18.2 0.01 0.12 0.12 90 1009.1
20260905222406 56 352 10.4 15.6 0.01 0.12 0.12 90 1009.2
20260905221906 56 351 8.7 17.4 0.01 0.12 0.12 90 1009.3
20260905221407 56 333 7.8 14.8 0.01 0.12 0.12 90 1009.3
20260905220907 56 345 7.8 13.0 0.01 0.12 0.12 90 1009.4
20260905220407 56 334 7.8 15.6 0.01 0.12 0.12 90 1009.5
20260905215907 56 348 6.1 15.6 0.01 0.12 0.12 90 1009.6
20260905215407 56 352 7.0 13.0 0.01 0.12 0.12 90 1009.7
20260905214907 56 336 8.7 17.4 0.02 0.12 0.12 90 1009.7
20260905214406 56 343 7.0 12.2 0.02 0.12 0.12 90 1009.7
20260905213907 56 346 7.0 15.6 0.03 0.12 0.12 90 1009.9
20260905213407 56 346 8.7 15.6 0.02 0.11 0.11 90 1010.0
20260905212907 56 326 7.8 13.0 0.02 0.11 0.11 90 1010.1
20260905211911 56 342 10.4 18.2 0.03 0.11 0.11 90 1010.2
20260905211407 56 356 7.0 14.8 0.03 0.11 0.11 90 1010.3
20260905210906 56 348 8.7 17.4 0.04 0.11 0.11 90 1010.3
20260905210406 56 349 8.7 17.4 0.05 0.11 0.11 90 1010.4
20260905205907 56 349 10.4 15.6 0.05 0.11 0.11 90 1010.5
20260905205407 56 351 10.4 15.6 0.05 0.11 0.11 90 1010.7
20260905204907 56 346 8.7 17.4 0.05 0.10 0.10 90 1010.7
20260905204406 56 346 8.7 14.8 0.04 0.09 0.09 90 1010.8
20260905203907 56 354 10.4 17.4 0.04 0.09 0.09 90 1010.9
20260905203406 56 348 10.4 18.2 0.04 0.09 0.09 90 1010.9
20260905202907 56 345 8.7 13.9 0.05 0.09 0.09 90 1011.0
20260905202406 56 341 7.8 15.6 0.06 0.09 0.09 90 1011.0
20260905201907 56 348 10.4 15.6 0.05 0.08 0.08 90 1011.0
20260905201407 56 340 7.8 18.2 0.05 0.08 0.08 90 1010.9
20260905200907 56 320 8.7 15.6 0.04 0.07 0.07 90 1010.9
20260905200407 56 343 10.4 18.2 0.06 0.06 0.06 90 1011.0
20260905195907 56 349 9.6 15.6 0.06 0.06 0.06 90 1011.0
20260905195406 56 332 8.7 17.4 0.06 0.06 0.06 90 1011.0
20260905194907 56 343 7.8 13.0 0.06 0.06 0.06 90 1011.1
20260905194407 56 347 7.8 14.8 0.06 0.06 0.06 90 1011.0
20260905193907 56 335 6.1 15.6 0.05 0.05 0.05 90 1011.0
20260905193406 56 348 8.7 17.4 0.05 0.05 0.05 90 1011.1
20260905190907 56 343 9.6 15.6 0.03 0.03 0.03 90 1011.0
20260905190406 56 340 7.8 13.9 0.00 0.00 0.00 90 1011.0
20260905185906 56 346 7.0 14.8 0.00 0.00 0.00 90 1011.1
20260905185407 56 351 7.8 17.4 0.00 0.00 0.00 90 1011.0
20260905184406 56 348 7.0 13.0 0.00 0.00 0.00 90 1011.2
20260905183406 56 352 6.1 13.0 0.00 0.00 0.00 89 1011.2
20260905182906 56 335 5.2 10.4 0.00 0.00 0.00 89 1011.2
20260905182406 56 345 6.1 11.3 0.00 0.00 0.00 89 1011.2
20260905180906 56 345 4.3 10.4 0.00 0.00 0.00 89 1011.1
20260905180407 56 342 4.3 10.4 0.00 0.00 0.00 89 1011.0
20260905175907 56 340 3.5 13.9 0.00 0.00 0.00 89 1011.0
20260905175406 56 350 7.8 12.2 0.00 0.00 0.00 89 1011.2
20260905174406 56 340 6.1 13.9 0.00 0.00 0.00 89 1011.2
20260905173907 56 351 7.0 12.2 0.00 0.00 0.00 89 1011.2
20260905173407 56 348 7.8 11.3 0.00 0.00 0.00 89 1011.1
20260905172906 56 351 7.0 13.0 0.00 0.00 0.00 89 1011.0
20260905172406 56 340 7.8 12.2 0.00 0.00 0.00 89 1011.0
20260905171907 56 338 8.7 17.4 0.00 0.00 0.00 89 1011.0
20260905170906 56 345 7.8 15.6 0.00 0.00 0.00 89 1011.1
20260905170407 56 347 7.0 12.2 0.00 0.00 0.00 89 1011.1
20260905165906 57 339 5.2 13.9 0.00 0.00 0.00 89 1011.2
20260905165406 57 350 7.8 17.4 0.00 0.00 0.00 89 1011.2
20260905164906 56 342 7.8 13.0 0.00 0.00 0.00 89 1011.1
20260905163906 56 329 6.1 14.8 0.00 0.00 0.00 89 1011.0
20260905163406 56 345 8.7 17.4 0.00 0.00 0.00 89 1010.8
20260905162906 56 335 4.3 13.9 0.00 0.00 0.00 89 1010.7
20260905162406 55 347 4.3 12.2 0.00 0.00 0.00 89 1010.7
20260905161906 55 326 4.3 11.3 0.00 0.00 0.00 89 1010.6
20260905160907 56 330 4.3 14.8 0.00 0.00 0.00 89 1010.5
20260905160406 56 344 8.7 17.4 0.00 0.00 0.00 89 1010.4
20260905155906 56 341 10.4 17.4 0.00 0.00 0.00 89 1010.5
20260905154907 56 351 7.0 12.2 0.00 0.00 0.00 89 1010.6
20260905154406 56 343 5.2 11.3 0.00 0.00 0.00 89 1010.6
20260905153907 56 342 4.3 12.2 0.00 0.00 0.00 89 1010.7
20260905153406 56 347 6.1 12.2 0.00 0.00 0.00 89 1010.7
20260905152910 56 338 5.2 13.9 0.00 0.00 0.00 89 1010.6
20260905152407 56 285 6.1 14.8 0.00 0.00 0.00 89 1010.6
20260905151907 56 319 5.2 13.0 0.00 0.00 0.00 89 1010.6
20260905150906 56 331 3.5 12.2 0.00 0.00 0.00 89 1010.6
20260905150407 56 301 5.2 12.2 0.00 0.00 0.00 89 1010.6
20260905145907 56 317 3.5 13.0 0.00 0.00 0.00 89 1010.6
20260905145406 56 335 4.3 13.9 0.00 0.00 0.00 88 1010.6
20260905144906 56 242 4.3 12.2 0.00 0.00 0.00 88 1010.6
20260905144407 56 317 5.2 11.3 0.00 0.00 0.00 88 1010.5
20260905143907 56 318 5.2 11.3 0.00 0.00 0.00 88 1010.6
20260905143407 56 294 5.2 13.0 0.00 0.00 0.00 88 1010.8
20260905142907 56 281 6.1 12.2 0.00 0.00 0.00 88 1010.8
20260905142407 56 307 4.3 10.4 0.00 0.00 0.00 88 1010.9
20260905141906 56 321 5.2 13.0 0.00 0.00 0.00 88 1011.0
20260905141407 56 299 5.2 13.0 0.00 0.00 0.00 88 1011.0
20260905140907 56 318 4.3 13.0 0.00 0.00 0.00 88 1011.0
20260905140407 56 325 3.5 13.0 0.00 0.00 0.00 88 1011.0
20260905135906 56 307 5.2 13.9 0.00 0.00 0.00 88 1010.9
20260905135406 56 343 6.1 19.1 0.00 0.00 0.00 88 1011.1
20260905134906 56 330 6.1 13.9 0.00 0.00 0.00 88 1011.1
20260905134406 56 320 4.3 11.3 0.00 0.00 0.00 88 1011.3
20260905133906 56 335 8.7 18.2 0.00 0.00 0.00 88 1011.4
20260905132906 56 320 7.0 19.1 0.00 0.00 0.00 87 1011.7
20260905132407 56 333 8.7 15.6 0.00 0.00 0.00 87 1011.8
20260905131906 56 338 7.0 17.4 0.00 0.00 0.00 87 1011.8
20260905130907 56 346 8.7 15.6 0.00 0.00 0.00 87 1011.9
20260905130406 56 336 9.6 17.4 0.00 0.00 0.00 87 1012.0
20260905125907 56 343 7.8 22.6 0.00 0.00 0.00 87 1011.9
20260905125406 56 344 9.6 20.0 0.00 0.00 0.00 87 1011.9
20260905124906 56 350 12.2 21.7 0.00 0.00 0.00 87 1011.9
20260905124406 56 324 7.8 17.4 0.00 0.00 0.00 87 1011.9
20260905123906 56 305 6.1 20.0 0.00 0.00 0.00 87 1012.0
20260905123406 56 334 6.1 13.9 0.00 0.00 0.00 87 1012.0
20260905122906 56 287 7.0 20.0 0.00 0.00 0.00 87 1012.0
20260905122406 56 327 6.1 17.4 0.00 0.00 0.00 87 1011.9
20260905120907 56 287 7.8 20.0 0.00 0.00 0.00 87 1012.0
20260905120406 56 337 8.7 20.0 0.00 0.00 0.00 87 1012.1
20260905115908 56 303 10.4 19.1 0.00 0.00 0.00 87 1012.2
20260905115406 56 334 11.3 21.7 0.00 0.00 0.00 87 1012.1
20260905114906 56 324 8.7 21.7 0.00 0.00 0.00 87 1012.1
20260905113907 56 335 6.1 17.4 0.00 0.00 0.00 86 1012.1
20260905113406 56 247 9.6 22.6 0.00 0.00 0.00 86 1012.1
20260905112906 56 332 9.6 18.2 0.00 0.00 0.00 86 1012.3
20260905112406 56 343 7.8 17.4 0.00 0.00 0.00 86 1012.4
20260905111907 56 290 10.4 20.0 0.00 0.00 0.00 86 1012.4
20260905111406 56 322 10.4 20.9 0.00 0.00 0.00 87 1012.4
20260905110906 56 309 8.7 19.1 0.00 0.00 0.00 87 1012.4
20260905110406 56 340 7.0 22.6 0.00 0.00 0.00 87 1012.3
20260905105906 56 337 10.4 21.7 0.00 0.00 0.00 87 1012.3
20260905105406 56 341 10.4 17.4 0.00 0.00 0.00 87 1012.4
20260905104910 56 329 10.4 18.2 0.00 0.00 0.00 87 1012.2
20260905104406 56 344 7.8 20.0 0.00 0.00 0.00 87 1012.2
20260905103406 55 336 7.8 21.7 0.00 0.00 0.00 87 1012.2
20260905102907 55 312 7.0 17.4 0.00 0.00 0.00 87 1012.4
20260905102407 55 341 8.7 20.9 0.00 0.00 0.00 87 1012.5
20260905101907 55 333 8.7 20.0 0.00 0.00 0.00 87 1012.4
20260905101406 55 321 7.8 15.6 0.00 0.00 0.00 87 1012.4
20260905100906 55 308 7.0 21.7 0.00 0.00 0.00 87 1012.4
20260905100406 55 334 8.7 17.4 0.00 0.00 0.00 87 1012.4
20260905095906 55 322 4.3 12.2 0.00 0.00 0.00 86 1012.4
20260905094906 56 228 5.2 13.0 0.00 0.00 0.00 85 1012.4
20260905093906 56 317 6.1 14.8 0.00 0.00 0.00 85 1012.2
20260905093406 55 243 7.8 13.9 0.00 0.00 0.00 85 1012.2
20260905092906 55 283 7.8 17.4 0.00 0.00 0.00 85 1012.2
20260905092406 56 264 7.8 14.8 0.00 0.00 0.00 85 1012.4
20260905091910 55 279 6.1 17.4 0.00 0.00 0.00 85 1012.4
20260905091407 55 311 7.8 20.0 0.00 0.00 0.00 85 1012.5
20260905090906 56 242 7.0 13.9 0.00 0.00 0.00 85 1012.5
20260905090406 56 333 6.1 19.1 0.00 0.00 0.00 85 1012.6
20260905085908 56 297 5.2 15.6 0.00 0.00 0.00 85 1012.5
20260905085407 56 290 4.3 14.8 0.00 0.00 0.00 85 1012.4
20260905084906 56 344 5.2 14.8 0.00 0.00 0.00 85 1012.3
20260905084410 55 237 7.0 20.0 0.00 0.00 0.00 85 1012.1
20260905083408 55 279 7.8 17.4 0.00 0.00 0.00 85 1011.8
20260905082906 55 277 8.7 20.0 0.00 0.00 0.00 84 1011.9